HST (20580 NORAD) Tracking and Keplerian Element Data

This shows tracking and keplerian element data for the satellite.

Feedback or suggestion? Click here.




ElementValue
Catalog20580
NameHST
Epoch Orbit71259
Epoch Day34.93539268
Epoch Year2025
RAAN226.6599
Inclination28.4667
Eccentricity0.0002892
Argument of Perigee54.4457
Mean Anonmoly305.6407
Mean Motion15.22840268
Decay Rate9.395E-05
L11 20580U 90037B 25034.93539268 .00009395 00000+0 38141-3 0 9998
L22 20580 28.4667 226.6599 0002892 54.4457 305.6407 15.22840268712596



Live tracking and technical data element details for HST (NORAD 20580). HST can be tracked NOW for your location showing map with azimuth and elevation plus other details from your city location.







IsCatalogInMostPopularTable: catalog: 20580, numindb: 1551
Update: records affected: 1



GetName: 20580 HST

Hit Count: updated at: Wed, 30 Apr 2025 17:09:45 GMT